CAPE
0 0 0 0 0 0 0 0 0 0 0 0 0 0 0 0 0 0 0 0 0 0 0 0 0 0 0 0 0 0 0 0 0 0 0 0 0 0 0 0 0 0 0 0
0 0 0 0 0 0 0 0 0 0 0 0 0 0 0 0 0 0 0 0 0 0 0 0 0 0 0 0 0 0 0 0 0 0 0 0 0 0 0 0 0 0 0 0
0 0 0 0 0 0 0 0 0 0 0 0 0 0 0 0 0 0 0 0 0 0 0 0 0 0 0 0 0 0 0 0 0 0 0 0 0 0 0 0 0 0 0 0
0 0 0 0 0 0 0 0 0 0 0 0 0 0 0 0 0 0 0 0 0 0 0 0 0 0 0 0 0 0 0 0 0 0 0 0 0 0 0 0 0 0 0 0
0 0 0 0 0 0 0 0 0 0 0 0 0 0 0 0 0 0 0 0 0 0 0 0 0 0 0 0 0 0 0 0 0 0 0 0 0 0 0 0 0 0 0 0
0 0 0 0 0 0 0 0 0 0 0 0 0 0 0 0 0 0 0 0 0 0 0 0 0 0 0 0 0 0 0 0 0 0 0 0 0 0 0 0 0 0 0 0
0 0 0 0 0 0 0 0 0 0 0 0 0 0 0 0 0 0 0 0 0 0 0 0 0 0 0 0 0 0 0 0 0 0 0 0 0 0 0 0 0 0 0 0
0 0 0 0 0 0 0 0 0 0 0 0 0 0 0 0 0 0 0 0 0 0 0 0 0 0 0 0 0 0 0 0 0 0 0 0 0 0 0 0 0 0 0 0
0 0 0 0 0 0 0 0 0 0 0 0 0 0 0 0 0 0 0 0 0 0 0 0 0 0 0 0 0 0 0 0 0 0 0 0 0 0 0 0 0 0 0 0
0 0 0 0 0 0 0 0 0 0 0 0 0 0 0 0 0 0 0 0 0 0 0 0 0 0 0 0 0 0 0 0 0 0 0 0 0 0 0 0 0 0 0 0
0 0 0 0 0 0 0 0 0 0 0 0 0 0 0 0 0 0 0 0 0 0 0 0 0 0 0 0 0 0 0 0 0 0 0 0 0 0 0 0 0 0 0 0
0 0 0 0 0 0 0 0 0 0 0 0 0 0 0 0 0 0 0 0 0 0 0 0 0 0 0 0 0 0 0 0 0 0 0 0 0 0 0 0 0 0 0 0
0 11 14 0 0 0 0 0 0 0 0 0 0 0 0 0 0 0 0 0 0 0 0 0 0 0 0 0 0 0 0 0 0 0 0 0 0 0 0 0 0 0 0 0
1 0 1 0 0 0 0 0 0 0 0 0 0 0 0 0 0 0 0 0 0 0 0 0 0 0 0 0 0 0 0 0 0 0 0 0 0 0 0 0 0 0 0 0
0 10 0 0 0 0 0 0 0 0 0 0 0 0 0 0 0 0 0 0 0 0 0 0 0 0 0 0 0 0 0 0 0 0 0 0 0 0 0 0 0 0 0 0
0 0 0 0 0 0 0 0 0 0 0 0 0 0 0 0 0 0 0 0 0 0 0 0 0 0 0 0 0 0 0 0 0 0 0 0 0 0 0 0 0 0 0 0
0 0 0 0 0 0 13 0 0 0 0 0 0 0 0 0 0 0 0 0 0 0 0 0 0 0 0 0 0 0 0 0 0 0 0 0 0 0 0 0 0 0 0 0
0 0 0 0 0 0 0 0 0 0 0 0 0 0 0 0 0 0 0 0 0 0 0 0 0 0 0 0 0 0 0 0 0 0 0 0 0 0 0 0 0 0 0 0
0 0 0 0 0 0 0 0 0 0 0 0 0 0 0 0 0 0 0 0 0 0 0 0 0 0 0 0 0 0 0 0 0 0 0 0 0 0 0 0 0 0 0 0
0 0 0 0 0 0 0 0 0 0 0 0 0 0 0 0 0 0 0 0 0 0 0 0 0 0 0 0 0 0 0 0 0 0 0 0 0 0 0 0 0 0 0 0
0 2 0 0 0 0 0 0 0 0 0 0 0 0 0 0 0 0 0 0 0 0 0 0 0 0 0 0 0 0 0 0 0 0 0 0 0 0 0 0 0 0 0 0
0 0 0 0 0 0 0 0 0 0 0 0 0 0 0 0 0 0 0 0 0 0 0 0 0 0 0 0 0 0 0 0 0 0 0 0 0 0 0 0 0 0 0 0
0 0 0 0 0 0 0 0 0 0 0 0 0 0 0 0 0 0 0 0 0 0 0 0 0 0 0 0 0 0 0 0 0 0 0 0 0 0 0 0 0 0 0 0
0 0 0 0 0 0 0 0 0 0 0 0 0 0 0 0 0 0 0 0 0 0 0 0 0 0 0 0 0 0 0 0 0 0 0 0 0 0 0 0 0 0 0 0
0 0 0 0 0 0 0 0 0 0 0 0 0 0 0 0 0 0 0 0 0 0 0 0 0 0 0 0 0 0 0 0 0 0 0 0 0 0 0 0 0 0 0 0
0 0 0 0 0 0 0 0 0 0 0 0 0 0 0 0 0 0 0 0 0 0 0 0 0 0 0 0 0 0 0 0 0 0 0 0 0 0 0 0 0 0 0 0
CIN
0 0 0 0 0 0 0 0 0 0 0 0 0 0 0 0 0 0 0 0 0 0 0 0 0 0 0 0 0 0 0 0 0 0 0 0 0 0 0 0 0 0 0 0
0 0 0 0 0 0 0 0 0 0 0 0 0 0 0 0 0 0 0 0 0 0 0 0 0 0 0 0 0 0 0 0 0 0 0 0 0 0 0 0 0 0 0 0
0 0 0 0 0 0 0 0 0 0 0 0 0 0 0 0 0 0 0 0 0 0 0 0 0 0 0 0 0 0 0 0 0 0 0 0 0 0 0 0 0 0 0 0
0 0 0 0 0 0 0 0 0 0 0 0 0 0 0 0 0 0 0 0 0 0 0 0 0 0 0 0 0 0 0 0 0 0 0 0 0 0 0 0 0 0 0 0
0 0 0 0 0 0 0 0 0 0 0 0 0 0 0 0 0 0 0 0 0 0 0 0 0 0 0 0 0 0 0 0 0 0 0 0 0 0 0 0 0 0 0 0
0 0 0 0 0 0 0 0 0 0 0 0 0 0 0 0 0 0 0 0 0 0 0 0 0 0 0 0 0 0 0 0 0 0 0 0 0 0 0 0 0 0 0 0
0 0 0 0 0 0 0 0 0 0 0 0 0 0 0 0 0 0 0 0 0 0 0 0 0 0 0 0 0 0 0 0 0 0 0 0 0 0 0 0 0 0 0 0
0 0 0 0 0 0 0 0 0 0 0 0 0 0 0 0 0 0 0 0 0 0 0 0 0 0 0 0 0 0 0 0 0 0 0 0 0 0 0 0 0 0 0 0
0 0 0 0 0 0 0 0 0 0 0 0 0 0 0 0 0 0 0 0 0 0 0 0 0 0 0 0 0 0 0 0 0 0 0 0 0 0 0 0 0 0 0 0
0 0 0 0 0 0 0 0 0 0 0 0 0 0 0 0 0 0 0 0 0 0 0 0 0 0 0 0 0 0 0 0 0 0 0 0 0 0 0 0 0 0 0 0
0 0 0 0 0 0 0 0 0 0 0 0 0 0 0 0 0 0 0 0 0 0 0 0 0 0 0 0 0 0 0 0 0 0 0 0 0 0 0 0 0 0 0 0
0 0 0 0 0 0 0 0 0 0 0 0 0 0 0 0 0 0 0 0 0 0 0 0 0 0 0 0 0 0 0 0 0 0 0 0 0 0 0 0 0 0 0 0
-9 -20 -12 -4 0 0 0 0 0 0 0 0 0 0 0 0 0 0 0 0 0 0 0 0 0 0 0 0 0 0 0 0 0 0 0 0 0 0 0 0 0 0 0 0
-11 -11 -6 0 0 0 0 0 0 0 0 0 0 0 0 0 0 0 0 0 0 0 0 0 0 0 0 0 0 0 0 0 0 0 0 0 0 0 0 0 0 0 0 0
0 -7 0 0 0 0 0 0 0 0 0 0 0 0 0 0 0 0 0 0 0 0 0 0 0 0 0 0 0 0 0 0 0 0 0 0 0 0 0 0 0 0 0 0
0 0 0 0 0 0 0 0 0 0 0 0 0 0 0 0 0 0 0 0 0 0 0 0 0 0 0 0 0 0 0 0 0 0 0 0 0 0 0 0 0 0 0 0
0 0 0 0 0 -1 -14 0 0 0 0 0 0 0 0 0 0 0 0 0 0 0 0 0 0 0 0 0 0 0 0 0 0 0 0 0 0 0 0 0 0 0 0 0
0 0 0 0 0 0 0 0 0 0 0 0 0 0 0 0 0 0 0 0 0 0 0 0 0 0 0 0 0 0 0 0 0 0 0 0 0 0 0 0 0 0 0 0
0 0 0 0 0 0 0 0 0 0 0 0 0 0 0 0 0 0 0 0 0 0 0 0 0 0 0 0 0 0 0 0 0 0 0 0 0 0 0 0 0 0 0 0
0 0 0 0 0 0 0 0 0 0 0 0 0 0 0 0 0 0 0 0 0 0 0 0 0 0 0 0 0 0 0 0 0 0 0 0 0 0 0 0 0 0 0 0
0 0 -2 0 0 0 0 0 0 0 0 0 0 0 0 0 0 0 0 0 0 0 0 0 0 0 0 0 0 0 0 0 0 0 0 0 0 0 0 0 0 0 0 0
0 0 0 0 -1 0 0 0 0 0 0 0 0 0 0 0 0 0 0 0 0 0 0 0 0 0 0 0 0 0 0 0 0 0 0 0 0 0 0 0 0 0 0 0
0 0 0 0 0 0 0 0 0 0 0 0 0 0 0 0 0 0 0 0 0 0 0 0 0 0 0 0 0 0 0 0 0 0 0 0 0 0 0 0 0 0 0 0
0 0 0 0 0 0 0 0 0 0 0 0 0 0 0 0 0 0 0 0 0 0 0 0 0 0 0 0 0 0 0 0 0 0 0 0 0 0 0 0 0 0 0 0
0 0 0 0 0 0 0 0 0 0 0 0 0 0 0 0 0 0 0 0 0 0 0 0 0 0 0 0 0 0 0 0 0 0 0 0 0 0 0 0 0 0 0 0
0 0 0 0 0 0 0 0 0 0 0 0 0 0 0 0 0 0 0 0 0 0 0 0 0 0 0 0 0 0 0 0 0 0 0 0 0 0 0 0 0 0 0 0
Wind_Speed
25 35 40 33 31 30 30 32 34 31 29 32 39 44 42 40 42 43 43 42 38 37 32 19 13 12 10 9 9 9 8 6 4 3 4 5 7 8 10 12 14 15 17 18
33 48 36 32 32 35 34 35 37 34 32 34 39 45 45 45 46 48 46 45 43 36 31 24 14 11 11 11 11 10 10 8 6 3 2 4 6 7 9 10 12 14 15 17
40 36 31 34 36 39 40 42 39 39 33 35 40 49 45 40 38 40 40 41 39 36 30 25 17 14 12 12 12 12 11 10 7 5 1 4 6 7 8 8 10 12 14 16
39 39 31 32 41 36 46 37 37 36 36 43 31 49 41 36 38 36 37 33 32 32 29 24 18 15 13 12 12 11 11 10 8 6 4 2 1 3 5 7 9 11 12 14
38 30 33 37 36 28 38 25 32 34 37 39 39 43 40 31 35 35 35 34 32 28 27 24 20 18 15 13 12 12 11 10 9 7 5 3 2 3 5 6 8 9 11 13
38 30 29 32 29 26 22 22 23 27 32 47 42 40 45 35 34 33 34 34 30 25 23 24 21 18 17 14 12 12 12 11 10 9 7 5 3 1 2 4 5 7 9 11
40 39 32 26 27 25 25 24 34 38 40 48 33 37 50 35 32 26 25 24 25 23 22 19 17 19 18 16 14 14 13 12 11 10 8 6 4 2 2 3 4 6 7 9
50 51 40 33 34 31 29 28 33 40 40 39 30 43 41 33 34 32 31 30 24 20 18 16 16 16 18 18 16 15 14 13 12 10 9 7 5 3 2 3 4 5 7 8
47 53 36 36 32 28 33 35 25 29 29 35 35 38 37 33 30 27 29 28 25 21 16 14 13 14 15 16 16 16 15 14 13 11 10 9 6 5 3 3 3 5 6 7
38 45 40 36 32 34 36 29 34 32 40 44 40 40 37 25 24 24 23 21 19 18 17 15 12 11 12 13 14 13 14 14 13 12 11 10 8 5 4 3 3 4 5 6
36 40 39 35 45 44 37 39 35 31 32 37 40 38 28 29 29 26 21 19 18 15 14 14 14 12 11 12 12 12 12 12 12 12 11 10 8 6 5 4 3 4 4 5
43 36 45 47 40 40 41 42 39 42 43 39 37 43 22 22 24 23 24 19 17 18 14 12 11 11 11 9 10 12 12 12 12 11 11 10 8 7 5 4 3 3 4 3
41 45 45 43 42 39 47 42 43 37 34 44 40 45 32 23 17 16 17 19 16 11 8 9 9 7 6 8 8 10 11 11 11 11 12 10 9 8 7 5 4 3 2 2
29 47 54 57 53 40 47 48 43 44 46 44 46 38 32 31 30 26 20 16 12 8 8 7 5 5 7 6 6 8 9 10 10 11 11 11 10 9 7 5 4 3 3 2
33 42 52 56 43 38 46 48 48 49 55 48 58 48 34 26 23 20 18 16 14 13 11 10 7 3 3 4 6 8 9 10 11 12 12 11 10 9 7 6 5 4 3 2
28 40 34 56 51 49 45 45 48 53 54 56 55 46 37 35 30 27 22 19 18 17 16 14 13 8 3 3 6 6 9 11 12 13 13 11 10 10 9 7 7 5 3 2
32 32 39 42 45 48 62 56 49 52 56 55 61 58 40 43 41 35 32 28 29 29 26 21 17 5 4 7 9 12 13 12 13 13 12 12 12 12 11 9 7 6 5 3
39 36 33 41 33 50 41 39 50 52 53 55 61 52 42 44 45 47 39 36 38 37 34 31 28 28 17 10 7 8 10 14 15 15 16 15 15 14 12 12 10 8 6 5
39 37 40 46 47 42 37 31 42 50 61 55 57 53 50 46 44 52 46 41 41 39 36 37 34 27 16 9 10 9 11 13 15 17 17 16 16 16 14 13 12 9 7 5
40 39 45 43 52 60 43 29 21 36 62 50 45 47 48 43 51 58 43 45 49 51 48 44 39 32 26 23 17 14 13 14 17 18 17 16 16 16 16 14 12 9 7 6
52 48 52 51 52 47 34 23 20 38 42 28 33 37 38 39 48 45 41 42 42 43 43 38 36 35 35 27 20 17 17 18 16 16 15 16 17 17 15 13 11 10 8 6
55 57 58 56 60 67 39 36 44 37 34 35 35 38 40 38 40 42 42 42 45 45 43 39 39 40 37 29 24 21 20 19 17 17 16 16 16 15 14 14 12 10 9 7
61 53 59 57 60 46 47 48 48 49 50 44 42 41 40 42 46 42 40 39 41 44 47 47 46 45 39 34 27 23 23 22 19 18 18 18 17 16 15 15 13 11 9 8
51 52 57 58 54 50 54 52 50 48 50 49 48 50 44 44 42 43 40 42 42 41 43 44 45 45 41 36 30 30 26 25 23 21 20 19 19 18 16 15 14 13 11 9
49 48 55 57 56 54 61 57 53 57 58 59 51 52 44 40 44 44 45 44 46 44 43 42 44 46 45 39 34 30 26 25 25 23 23 20 19 19 17 16 15 14 12 11
39 42 50 54 50 51 61 54 54 59 60 59 55 51 46 40 44 45 44 41 42 45 43 43 43 44 43 40 36 32 27 27 26 25 25 22 21 19 18 16 15 14 12 13
Wind_Direction
256 252 248 251 253 262 263 259 260 265 269 265 262 259 262 266 266 261 259 259 264 261 268 270 254 251 240 223 211 207 201 190 166 128 90 65 75 47 50 54 57 57 54 54
253 250 254 255 255 255 260 261 262 270 272 267 267 264 265 267 267 262 261 260 258 264 266 269 257 243 225 216 209 203 198 193 188 177 104 33 67 26 44 54 56 59 57 57
250 259 254 253 253 253 256 258 263 266 274 273 272 266 266 273 273 270 268 266 265 264 264 264 255 245 236 218 205 202 199 193 194 181 151 8 358 13 30 50 57 60 58 58
256 254 254 253 251 252 256 261 264 266 268 264 273 264 266 272 271 274 272 273 270 264 262 260 250 243 230 223 218 214 208 203 204 194 206 201 100 41 31 61 61 61 59 58
253 254 249 252 255 251 261 265 262 264 265 267 266 268 268 275 273 273 273 272 272 272 260 255 249 242 239 227 217 215 208 206 205 204 212 220 283 351 30 58 64 61 59 59
253 257 250 252 255 249 258 262 267 266 265 261 261 264 266 270 275 278 276 275 276 272 268 260 253 243 240 233 222 219 213 215 211 209 211 202 207 307 43 61 68 70 65 60
248 249 253 248 249 246 246 245 258 259 259 259 266 263 263 272 273 278 280 283 276 275 270 262 247 238 237 230 227 224 218 223 218 214 212 209 209 203 143 100 83 76 71 67
243 247 239 242 247 246 239 242 254 258 260 264 268 263 269 271 269 273 274 280 284 282 279 266 254 244 235 232 228 225 224 228 224 221 218 215 216 212 169 125 101 89 84 80
245 248 245 240 245 237 243 244 257 264 269 266 265 268 273 272 275 276 274 275 276 277 279 271 261 250 238 233 232 230 230 233 227 221 222 217 216 205 184 144 108 93 79 76
253 251 249 241 242 245 242 239 247 257 256 258 263 265 262 273 272 274 278 279 278 276 278 275 269 253 242 234 234 233 233 227 225 218 214 206 201 203 193 158 134 109 86 78
253 251 251 237 238 235 239 235 247 251 256 259 262 265 274 269 270 272 279 282 280 280 283 278 273 269 257 250 239 233 230 228 226 225 218 208 204 205 195 173 150 123 99 90
241 256 247 241 248 244 241 240 239 247 250 255 261 257 278 270 262 265 273 281 277 281 287 286 281 265 259 249 242 239 235 232 229 222 209 207 209 205 202 197 166 132 110 85
239 245 246 244 249 247 238 241 236 248 251 248 249 254 256 262 269 275 287 281 281 300 309 292 287 280 261 252 240 240 241 238 228 218 211 215 212 206 199 195 174 150 123 96
254 243 242 242 245 241 239 237 239 240 244 247 244 253 257 256 257 269 283 279 285 301 321 330 339 303 278 252 226 229 230 230 217 204 205 207 207 207 204 201 187 167 143 121
254 252 245 246 250 244 244 240 238 238 242 245 245 248 252 257 262 270 274 278 283 294 297 305 327 46 128 182 249 241 237 227 216 207 207 204 211 212 207 202 193 178 161 150
265 252 262 245 245 245 247 243 240 241 243 246 248 251 252 258 265 265 267 268 274 285 289 297 307 312 298 207 193 203 192 188 187 191 196 205 205 205 198 191 181 178 175 166
263 261 254 255 246 245 247 243 241 243 243 243 245 247 253 254 255 258 262 267 272 279 285 290 296 266 226 178 180 180 176 180 185 191 198 197 193 191 192 193 194 190 184 181
254 260 258 250 258 244 251 253 243 245 246 245 249 250 254 255 259 261 265 268 271 273 277 278 281 275 276 269 250 231 189 183 183 185 185 187 188 188 189 185 185 191 196 194
250 254 256 251 250 256 259 261 246 241 247 246 250 253 255 259 264 260 261 266 267 268 272 269 270 275 277 245 245 210 201 195 192 190 189 190 187 187 189 190 189 190 192 203
248 250 251 252 250 248 254 256 278 250 250 248 252 256 258 259 257 257 265 263 263 260 263 266 267 269 270 269 257 235 222 214 201 196 196 194 192 192 192 193 193 204 204 209
245 247 246 248 249 251 252 257 265 252 253 256 256 260 261 262 260 268 269 266 266 263 262 265 263 264 264 265 255 239 233 214 217 222 215 203 196 194 196 199 209 204 210 221
246 247 248 250 250 248 249 254 253 254 266 270 268 266 265 271 274 273 271 269 265 262 262 264 264 264 263 261 254 248 233 236 233 222 211 211 208 213 214 207 209 209 210 223
250 250 251 252 252 257 256 255 256 257 261 269 272 269 268 272 272 273 272 270 268 266 264 262 262 259 260 257 252 246 248 239 232 220 215 215 213 212 211 206 209 212 216 214
257 255 255 257 255 255 256 255 254 258 261 267 270 270 270 269 269 268 270 269 268 270 269 266 260 257 256 251 253 256 251 240 233 227 225 224 217 219 221 221 218 222 222 222
259 259 255 257 256 258 256 256 258 259 260 261 264 263 268 266 265 267 268 271 272 272 271 270 261 255 251 251 252 253 248 237 234 230 231 226 222 220 224 227 219 224 237 239
262 260 254 256 255 256 258 259 257 255 255 255 258 259 259 263 266 269 270 273 273 269 267 265 260 256 252 250 247 247 244 237 232 232 231 227 225 223 225 223 234 250 252 264